Regional Weather Roundup
Issued by NWS

Home | Current Version | Previous Version | Graphics & Text | Print | Product List | Glossary On
Versions: 1 2 3 4 5 6 7 8 9 10 11 12 13 14 15 16 17 18 19 20 21 22 23 24 25 26 27 28 29 30 31 32 33 34 35 36 37 38 39 40 41 42 43 44 45 46 47 48 49 50
000
ASUS43 KDTX 180101
RWRMI
MICHIGAN HOURLY REGIONAL WEATHER ROUNDUP
NATIONAL WEATHER SERVICE DETROIT/PONTIAC MI
900 PM EDT FRI APR 17 2015

NOTE: "FAIR" INDICATES FEW OR NO CLOUDS BELOW 12,000 FEET WITH NO
SIGNIFICANT WEATHER AND/OR OBSTRUCTION TO VISIBILITY.

MIZ047>049-052>055-059>063-066>070-074>076-081>083-180200-
SOUTHEAST LOWER MICHIGAN

CITY           SKY/WX    TMP DP  RH WIND       PRES   REMARKS
ADRIAN         CLEAR     67  43  41 W5        30.01R
ALMA           CLEAR     65  40  39 W7        29.99R
ANN ARBOR      MOCLDY    66  42  41 W5        30.00R
BAD AXE        CLEAR     58  44  58 SE3       29.99R
CARO           CLEAR     59  44  57 CALM      29.97S
DETROIT CITY   PTCLDY    61  47  59 S6        30.00R
DETROIT        MOCLDY    63  41  44 SE5       30.01R
FLINT          PTCLDY    70  38  31 SW5       29.99R
GROSSE ILE     PTCLDY    52  46  82 S7        29.99S
HILLSDALE      CLEAR     66  40  37 W3        30.03R
HOWELL         CLEAR     66  37  33 W5        30.00R

CITY           SKY/WX    TMP DP  RH WIND       PRES   REMARKS
JACKSON        CLEAR     65  39  38 NW7       30.01R
LAMBERTVILLE   CLEAR     64  43  45 CALM      30.01R
LANSING        CLEAR     64  40  41 W6        30.01R
LAPEER         FAIR      62  46  55 SE6       29.99R
MASON          CLEAR     65  40  39 W5        30.01R
MONROE         MOCLDY    63  46  55 CALM      29.99R
PONTIAC        PTCLDY    66  40  38 CALM      29.99R
PORT HOPE        N/A     43  40  89 SE12      29.98S
PORT HURON     PTCLDY    55  41  58 CALM      30.01S
TRI CITIES     CLEAR     69  39  33 SW5       29.98R
TROY           PTCLDY    66  38  34 S5        30.02R
SAGINAW HB     CLEAR     66  36  32 SW5       29.98R
$$
MIZ043>046-050>051-056>058-064>065-071>073-077>080-180200-
SOUTHWEST LOWER MICHIGAN

CITY           SKY/WX    TMP DP  RH WIND       PRES   REMARKS
BATTLE CREEK   CLEAR     66  39  37 NW6       30.03R
BENTON HARBOR  CLOUDY    64  45  49 NE3       30.01S
BIG RAPIDS     CLEAR     61  40  44 CALM      30.00R
COLDWATER      CLEAR     64  40  41 W3        30.02R
FREMONT        FAIR      64  32  30 CALM      30.00S
HOLLAND        CLEAR     62  43  49 NW3       30.03R
GRAND RAPIDS   PTCLDY    64  40  41 W7        30.01S
IONIA          FAIR      67  37  32 W7        30.00S
KALAMAZOO      CLEAR     67  41  38 W5        30.03R
LUDINGTON      CLEAR     51  40  66 CALM      30.01R
MARSHALL       CLEAR     64  38  38 CALM      30.02R
MOUNT PLEASANT CLEAR     66  39  36 W6        29.99R
MUSKEGON       PTCLDY    53  40  61 SW7       30.02R
SOUTH HAVEN    PTCLDY    62  44  52 CALM      30.02S
$$
MIZ016>042-180200-
NORTHERN LOWER MICHIGAN

CITY           SKY/WX    TMP DP  RH WIND       PRES   REMARKS
ALPENA         CLEAR     51  38  60 CALM      30.01R
BEAVER ISLAND  CLEAR     48  32  53 CALM      29.99S
BELLAIRE       CLEAR     53  40  59 CALM      29.99S
CADILLAC       CLEAR     61  37  41 W5        30.00S
CHARLEVOIX     CLEAR     53  36  53 CALM      30.02S
FRANKFORT      CLEAR     52  41  65 CALM      29.98S
GAYLORD        CLEAR     55  37  50 CALM      30.00S
GRAYLING       CLEAR     55  37  50 CALM      30.01R
HARBOR SPRINGS CLEAR     42  35  75 CALM      29.99S
HOUGHTON LAKE  CLEAR     61  37  41 N6        30.00R
MANISTEE       CLEAR     52  39  62 CALM      30.00S
OSCODA         CLEAR     48  39  72 E3        30.01R
PELLSTON       CLEAR     51  28  41 NW3       29.99S
ROGERS CITY    CLEAR     53  29  40 CALM      30.00S
TRAVERSE CITY  CLEAR     49  34  56 CALM      29.98F
$$
MIZ007>008-015-180200-
EASTERN UPPER MICHIGAN

CITY           SKY/WX    TMP DP  RH WIND       PRES   REMARKS
KINROSS        CLEAR     46  28  49 CALM      29.98R
MACKINAC ISLAN CLEAR     48  30  50 W6        29.98S
NEWBERRY       CLEAR     50  32  50 SW9       29.97R
S. S. MARIE    CLEAR     46  27  47 S3        29.97F
MUNISING         N/A     41  30  65 CALM      29.97R
$$
MIZ004>006-011>014-085-180200-
CENTRAL UPPER MICHIGAN

CITY           SKY/WX    TMP DP  RH WIND       PRES   REMARKS
MANISTIQUE     CLEAR     41  35  79 CALM      29.97F
ESCANABA       CLEAR     46  34  61 CALM      29.98R
MENOMINEE      PTCLDY    54  37  54 S8        29.96S
SAWYER-GWINN   CLEAR     55  30  38 CALM      29.97R
$$
MIZ001>003-009>011-084-180200-
WESTERN UPPER MICHIGAN

CITY           SKY/WX    TMP DP  RH WIND       PRES   REMARKS
IRON MOUNTAIN  CLEAR     59  40  49 SE5       29.94R
HOUGHTON       CLEAR     51  29  42 CALM      29.94S
COPPER HARBOR    N/A     47  28  47 SW13      29.91F
IRONWOOD       CLEAR     63  30  29 CALM      29.94S
$$

ABBREVIATIONS USED IN REMARKS
   TC - TEMPERATURE IN CELSIUS
  WCI - WIND CHILL INDEX
   HX - HEAT INDEX
  VSB - VISIBILITY



USA.gov is the U.S. government's official web portal to all federal, state and local government web resources and services.